Time,TemperatureF,DewpointF,PressureIn,WindDirection,WindDirectionDegrees,WindSpeedMPH,WindSpeedGustMPH,Humidity,HourlyPrecipIn,Conditions,Clouds,dailyrainin,SoftwareType,DateUTC
2013-08-06 00:07:00,76.2,74.0,30.01,SW,219,0.0,3.0,94,0.00,,,0.02,weatherlink.com 1.10,2013-08-06 04:07:00,
2013-08-06 00:22:00,76.2,75.0,30.01,SW,219,0.0,4.0,95,0.00,,,0.02,weatherlink.com 1.10,2013-08-06 04:22:00,
2013-08-06 00:37:00,76.3,75.0,30.00,SW,218,2.0,5.0,95,0.00,,,0.02,weatherlink.com 1.10,2013-08-06 04:37:00,
2013-08-06 00:52:00,76.4,75.0,30.00,SSW,197,1.0,4.0,96,0.00,,,0.02,weatherlink.com 1.10,2013-08-06 04:52:00,
2013-08-06 01:07:00,76.4,75.0,29.99,South,184,0.0,5.0,96,0.00,,,0.02,weatherlink.com 1.10,2013-08-06 05:07:00,
2013-08-06 01:22:00,76.4,75.0,29.98,South,185,0.0,1.0,96,0.00,,,0.02,weatherlink.com 1.10,2013-08-06 05:22:00,
2013-08-06 01:37:00,76.5,75.0,29.98,South,185,0.0,1.0,96,0.00,,,0.02,weatherlink.com 1.10,2013-08-06 05:37:00,
2013-08-06 01:53:00,76.4,75.0,29.97,South,185,0.0,1.0,96,0.00,,,0.02,weatherlink.com 1.10,2013-08-06 05:53:00,
2013-08-06 02:08:00,76.3,75.0,29.97,South,185,0.0,1.0,96,0.00,,,0.02,weatherlink.com 1.10,2013-08-06 06:08:00,
2013-08-06 02:23:00,76.3,75.0,29.97,South,185,0.0,0.0,96,0.00,,,0.02,weatherlink.com 1.10,2013-08-06 06:23:00,
2013-08-06 02:38:00,76.4,75.0,29.97,South,185,0.0,0.0,96,0.00,,,0.02,weatherlink.com 1.10,2013-08-06 06:38:00,
2013-08-06 02:53:00,76.4,75.0,29.97,South,185,0.0,0.0,96,0.00,,,0.02,weatherlink.com 1.10,2013-08-06 06:53:00,
2013-08-06 03:08:00,76.6,75.0,29.96,South,185,0.0,0.0,96,0.00,,,0.02,weatherlink.com 1.10,2013-08-06 07:08:00,
2013-08-06 03:23:00,76.5,75.0,29.96,South,185,0.0,0.0,96,0.00,,,0.02,weatherlink.com 1.10,2013-08-06 07:23:00,
2013-08-06 03:38:00,76.6,75.0,29.95,South,185,0.0,1.0,96,0.00,,,0.02,weatherlink.com 1.10,2013-08-06 07:38:00,
2013-08-06 03:53:00,76.5,75.0,29.95,South,185,0.0,0.0,96,0.00,,,0.02,weatherlink.com 1.10,2013-08-06 07:53:00,
2013-08-06 04:08:00,76.4,75.0,29.95,South,185,0.0,0.0,96,0.00,,,0.02,weatherlink.com 1.10,2013-08-06 08:08:00,
2013-08-06 04:23:00,76.2,75.0,29.95,South,184,0.0,2.0,96,0.00,,,0.02,weatherlink.com 1.10,2013-08-06 08:23:00,
2013-08-06 04:38:00,76.2,75.0,29.95,South,182,0.0,1.0,96,0.00,,,0.02,weatherlink.com 1.10,2013-08-06 08:38:00,
2013-08-06 04:53:00,76.2,75.0,29.94,South,182,0.0,1.0,96,0.00,,,0.02,weatherlink.com 1.10,2013-08-06 08:53:00,
2013-08-06 05:08:00,76.0,75.0,29.95,South,182,0.0,1.0,96,0.00,,,0.02,weatherlink.com 1.10,2013-08-06 09:08:00,
2013-08-06 05:23:00,76.1,75.0,29.94,South,182,0.0,0.0,97,0.00,,,0.02,weatherlink.com 1.10,2013-08-06 09:23:00,
2013-08-06 05:38:00,76.1,75.0,29.94,South,182,0.0,0.0,96,0.00,,,0.02,weatherlink.com 1.10,2013-08-06 09:38:00,
2013-08-06 05:53:00,75.9,75.0,29.94,South,182,0.0,0.0,97,0.00,,,0.02,weatherlink.com 1.10,2013-08-06 09:53:00,
2013-08-06 06:08:00,75.8,75.0,29.94,South,182,0.0,0.0,97,0.00,,,0.02,weatherlink.com 1.10,2013-08-06 10:08:00,
2013-08-06 06:23:00,75.7,75.0,29.94,South,182,0.0,0.0,97,0.00,,,0.02,weatherlink.com 1.10,2013-08-06 10:23:00,
2013-08-06 06:38:00,75.8,75.0,29.94,South,182,0.0,1.0,97,0.00,,,0.02,weatherlink.com 1.10,2013-08-06 10:38:00,
2013-08-06 06:53:00,75.5,75.0,29.94,South,182,0.0,1.0,97,0.00,,,0.02,weatherlink.com 1.10,2013-08-06 10:53:00,
2013-08-06 07:08:00,75.5,75.0,29.95,South,182,0.0,2.0,97,0.00,,,0.02,weatherlink.com 1.10,2013-08-06 11:08:00,
2013-08-06 07:23:00,75.7,75.0,29.96,South,182,0.0,1.0,97,0.00,,,0.02,weatherlink.com 1.10,2013-08-06 11:23:00,
2013-08-06 07:38:00,76.0,75.0,29.97,South,182,0.0,0.0,97,0.00,,,0.02,weatherlink.com 1.10,2013-08-06 11:38:00,
2013-08-06 07:53:00,76.6,76.0,29.97,South,182,0.0,1.0,97,0.00,,,0.02,weatherlink.com 1.10,2013-08-06 11:53:00,
2013-08-06 08:08:00,77.2,76.0,29.98,South,182,0.0,2.0,95,0.00,,,0.02,weatherlink.com 1.10,2013-08-06 12:08:00,
2013-08-06 08:23:00,77.9,76.0,29.98,South,182,0.0,2.0,94,0.00,,,0.02,weatherlink.com 1.10,2013-08-06 12:23:00,
2013-08-06 08:38:00,78.8,76.0,29.99,South,182,1.0,3.0,92,0.00,,,0.02,weatherlink.com 1.10,2013-08-06 12:38:00,
2013-08-06 08:53:00,79.6,77.0,29.99,South,182,0.0,0.0,91,0.00,,,0.02,weatherlink.com 1.10,2013-08-06 12:53:00,
2013-08-06 09:08:00,80.0,77.0,29.99,SSW,195,2.0,3.0,90,0.00,,,0.02,weatherlink.com 1.10,2013-08-06 13:08:00,
2013-08-06 09:23:00,80.3,77.0,29.99,WNW,298,1.0,5.0,89,0.01,,,0.03,weatherlink.com 1.10,2013-08-06 13:23:00,
2013-08-06 09:38:00,80.8,77.0,29.99,West,280,0.0,4.0,89,0.01,,,0.03,weatherlink.com 1.10,2013-08-06 13:38:00,
2013-08-06 09:53:00,82.3,78.0,29.99,WNW,288,1.0,2.0,86,0.01,,,0.03,weatherlink.com 1.10,2013-08-06 13:53:00,
2013-08-06 10:08:00,83.2,78.0,30.00,ENE,69,0.0,4.0,84,0.00,,,0.03,weatherlink.com 1.10,2013-08-06 14:08:00,
2013-08-06 10:23:00,84.5,78.0,30.00,ENE,75,2.0,3.0,81,0.00,,,0.03,weatherlink.com 1.10,2013-08-06 14:23:00,
2013-08-06 10:38:00,85.2,78.0,30.00,SE,126,1.0,4.0,79,0.00,,,0.03,weatherlink.com 1.10,2013-08-06 14:38:00,
2013-08-06 10:53:00,86.3,78.0,30.00,NE,55,1.0,4.0,75,0.00,,,0.03,weatherlink.com 1.10,2013-08-06 14:53:00,
2013-08-06 11:08:00,87.2,78.0,30.00,ESE,103,0.0,3.0,74,0.00,,,0.03,weatherlink.com 1.10,2013-08-06 15:08:00,
2013-08-06 11:23:00,87.5,77.0,30.00,ENE,68,0.0,4.0,72,0.00,,,0.03,weatherlink.com 1.10,2013-08-06 15:23:00,
2013-08-06 11:38:00,87.9,78.0,30.01,ENE,59,3.0,7.0,73,0.00,,,0.03,weatherlink.com 1.10,2013-08-06 15:38:00,
2013-08-06 11:53:00,87.7,78.0,30.00,ENE,61,0.0,4.0,72,0.00,,,0.03,weatherlink.com 1.10,2013-08-06 15:53:00,
2013-08-06 12:08:00,88.3,78.0,30.00,NE,45,0.0,6.0,71,0.00,,,0.03,weatherlink.com 1.10,2013-08-06 16:08:00,
2013-08-06 12:23:00,89.6,78.0,30.00,ENE,61,0.0,4.0,68,0.00,,,0.03,weatherlink.com 1.10,2013-08-06 16:23:00,
2013-08-06 12:38:00,88.7,78.0,29.99,ESE,108,0.0,3.0,70,0.00,,,0.03,weatherlink.com 1.10,2013-08-06 16:38:00,
2013-08-06 12:53:00,87.7,78.0,29.98,ENE,62,0.0,4.0,72,0.00,,,0.03,weatherlink.com 1.10,2013-08-06 16:53:00,
2013-08-06 13:08:00,87.9,77.0,29.98,NE,51,0.0,5.0,71,0.00,,,0.03,weatherlink.com 1.10,2013-08-06 17:08:00,
2013-08-06 13:23:00,90.0,78.0,29.98,ENE,60,2.0,4.0,68,0.00,,,0.03,weatherlink.com 1.10,2013-08-06 17:23:00,
2013-08-06 13:38:00,91.7,79.0,29.97,ENE,74,0.0,6.0,66,0.00,,,0.03,weatherlink.com 1.10,2013-08-06 17:38:00,
2013-08-06 13:53:00,92.2,78.0,29.96,NE,49,0.0,6.0,63,0.00,,,0.03,weatherlink.com 1.10,2013-08-06 17:53:00,
2013-08-06 14:08:00,92.5,78.0,29.96,NE,54,0.0,3.0,63,0.00,,,0.03,weatherlink.com 1.10,2013-08-06 18:08:00,
2013-08-06 14:23:00,92.3,77.0,29.96,South,177,0.0,5.0,61,0.00,,,0.00,weatherlink.com 1.10,2013-08-06 18:23:00,
2013-08-06 14:38:00,91.3,80.0,29.96,ESE,123,0.0,2.0,69,0.00,,,0.00,weatherlink.com 1.10,2013-08-06 18:38:00,
2013-08-06 14:53:00,91.3,80.0,29.95,East,90,0.0,6.0,69,0.00,,,0.00,weatherlink.com 1.10,2013-08-06 18:53:00,
2013-08-06 15:08:00,91.5,79.0,29.95,NE,44,0.0,5.0,67,0.00,,,0.00,weatherlink.com 1.10,2013-08-06 19:08:00,
2013-08-06 15:23:00,93.1,80.0,29.94,East,90,0.0,5.0,65,0.00,,,0.00,weatherlink.com 1.10,2013-08-06 19:23:00,
2013-08-06 15:38:00,93.3,80.0,29.94,ENE,65,1.0,8.0,65,0.00,,,0.00,weatherlink.com 1.10,2013-08-06 19:38:00,
2013-08-06 15:53:00,91.2,79.0,29.94,NE,46,6.0,11.0,68,0.00,,,0.00,weatherlink.com 1.10,2013-08-06 19:53:00,
2013-08-06 16:08:00,89.8,79.0,29.95,ESE,105,4.0,9.0,71,0.00,,,0.00,weatherlink.com 1.10,2013-08-06 20:08:00,
2013-08-06 16:23:00,90.0,79.0,29.94,ENE,64,1.0,10.0,71,0.00,,,0.00,weatherlink.com 1.10,2013-08-06 20:23:00,
2013-08-06 16:38:00,90.4,79.0,29.94,ENE,73,3.0,9.0,70,0.00,,,0.00,weatherlink.com 1.10,2013-08-06 20:38:00,
2013-08-06 16:53:00,90.2,79.0,29.94,East,82,8.0,10.0,70,0.00,,,0.00,weatherlink.com 1.10,2013-08-06 20:53:00,
2013-08-06 17:09:00,89.3,79.0,29.94,ENE,62,10.0,11.0,72,0.00,,,0.00,weatherlink.com 1.10,2013-08-06 21:09:00,
2013-08-06 17:24:00,88.8,79.0,29.93,NE,34,2.0,11.0,72,0.00,,,0.00,weatherlink.com 1.10,2013-08-06 21:24:00,
2013-08-06 17:39:00,87.6,78.0,29.94,ENE,68,3.0,11.0,74,0.00,,,0.00,weatherlink.com 1.10,2013-08-06 21:39:00,
2013-08-06 17:54:00,87.1,78.0,29.94,East,98,2.0,9.0,75,0.00,,,0.00,weatherlink.com 1.10,2013-08-06 21:54:00,
2013-08-06 18:09:00,86.6,77.0,29.94,ESE,102,5.0,8.0,74,0.00,,,0.00,weatherlink.com 1.10,2013-08-06 22:09:00,
2013-08-06 18:24:00,85.4,76.0,29.95,SW,219,3.0,7.0,74,0.00,,,0.00,weatherlink.com 1.10,2013-08-06 22:24:00,
2013-08-06 18:39:00,83.2,75.0,29.95,WSW,241,1.0,5.0,77,0.00,,,0.00,weatherlink.com 1.10,2013-08-06 22:39:00,
2013-08-06 18:54:00,82.3,74.0,29.95,SW,217,2.0,5.0,77,0.00,,,0.00,weatherlink.com 1.10,2013-08-06 22:54:00,
2013-08-06 19:09:00,82.0,74.0,29.95,SW,214,0.0,5.0,77,0.00,,,0.00,weatherlink.com 1.10,2013-08-06 23:09:00,
2013-08-06 19:24:00,82.1,75.0,29.95,SW,214,1.0,1.0,80,0.00,,,0.00,weatherlink.com 1.10,2013-08-06 23:24:00,
2013-08-06 19:39:00,81.9,76.0,29.96,West,269,0.0,2.0,82,0.00,,,0.00,weatherlink.com 1.10,2013-08-06 23:39:00,
2013-08-06 19:54:00,81.7,76.0,29.97,West,269,0.0,2.0,83,0.00,,,0.00,weatherlink.com 1.10,2013-08-06 23:54:00,
2013-08-06 20:09:00,82.1,77.0,29.97,West,269,0.0,1.0,83,0.00,,,0.00,weatherlink.com 1.10,2013-08-07 00:09:00,
2013-08-06 20:24:00,81.7,76.0,29.97,SSW,192,0.0,7.0,83,0.00,,,0.00,weatherlink.com 1.10,2013-08-07 00:24:00,
2013-08-06 20:39:00,81.0,76.0,29.97,South,190,1.0,6.0,85,0.00,,,0.00,weatherlink.com 1.10,2013-08-07 00:39:00,
2013-08-06 20:54:00,80.2,76.0,29.98,South,188,0.0,5.0,86,0.00,,,0.00,weatherlink.com 1.10,2013-08-07 00:54:00,
2013-08-06 21:09:00,79.9,76.0,29.98,South,188,0.0,1.0,87,0.00,,,0.00,weatherlink.com 1.10,2013-08-07 01:09:00,
2013-08-06 21:24:00,79.6,76.0,29.98,South,188,0.0,1.0,88,0.00,,,0.00,weatherlink.com 1.10,2013-08-07 01:24:00,
2013-08-06 21:39:00,79.5,76.0,29.97,South,188,0.0,0.0,89,0.00,,,0.00,weatherlink.com 1.10,2013-08-07 01:39:00,
2013-08-06 21:54:00,79.2,76.0,29.98,South,188,0.0,0.0,89,0.00,,,0.00,weatherlink.com 1.10,2013-08-07 01:54:00,
2013-08-06 22:09:00,79.0,76.0,29.98,South,188,0.0,1.0,90,0.00,,,0.00,weatherlink.com 1.10,2013-08-07 02:09:00,
2013-08-06 22:24:00,78.8,76.0,29.98,South,188,0.0,0.0,91,0.00,,,0.00,weatherlink.com 1.10,2013-08-07 02:24:00,
2013-08-06 22:39:00,78.6,76.0,29.99,South,188,0.0,0.0,92,0.00,,,0.00,weatherlink.com 1.10,2013-08-07 02:39:00,
2013-08-06 22:54:00,78.5,76.0,29.99,South,188,0.0,0.0,92,0.00,,,0.00,weatherlink.com 1.10,2013-08-07 02:54:00,
2013-08-06 23:09:00,78.4,76.0,29.99,South,188,0.0,0.0,92,0.00,,,0.00,weatherlink.com 1.10,2013-08-07 03:09:00,
2013-08-06 23:24:00,78.4,76.0,29.98,South,188,0.0,0.0,93,0.00,,,0.00,weatherlink.com 1.10,2013-08-07 03:24:00,
2013-08-06 23:39:00,78.5,76.0,29.98,South,188,0.0,0.0,93,0.00,,,0.00,weatherlink.com 1.10,2013-08-07 03:39:00,
2013-08-06 23:54:00,78.2,76.0,29.98,South,188,0.0,0.0,93,0.00,,,0.00,weatherlink.com 1.10,2013-08-07 03:54:00,